Location: Poughquag
(41.6090°N, 73.6820°W)
Time: 00:07:53
(UTC-04:00)

ISS - Pass Details

Date: 27 May 2019
Orbit: 407 x 418 km, 51.6° (Epoch: 27 June)

Event Time Altitude Azimuth Distance (km) Brightness Sun altitude
Rises 21:55:00 0° 305° (NW) 2,357 1.7 -14.9°
Reaches altitude 10° 21:57:41 10° 328° (NNW) 1,496 0.4 -15.2°
Maximum altitude 21:59:52 16° 9° (N) 1,181 -1.0 -15.5°
Drops below altitude 10° 22:02:04 10° 50° (NE) 1,499 -1.0 -15.7°
Enters shadow 22:03:40 - 66° (ENE) 1,984 -0.5 -15.9°
